Regional Weather Roundup
Issued by NWS

Home | Current Version | Previous Version | Text Only | Print | Product List | Glossary On
Versions: 1 2 3 4 5 6 7 8 9 10 11 12 13 14 15 16 17 18 19 20 21 22 23 24 25 26 27 28 29 30 31 32 33 34 35 36 37 38 39 40 41 42 43 44 45 46 47 48 49 50
767
ASUS43 KTOP 232308
RWRKS

WEATHER ROUNDUP FOR KANSAS
NATIONAL WEATHER SERVICE GOODLAND KS
600 PM CDT WED MAY 23 2018

NOTE:  "FAIR" INDICATES FEW OR NO CLOUDS BELOW 12,000 FEET WITH NO
SIGNIFICANT WEATHER AND/OR OBSTRUCTIONS TO VISIBILITY.

KSZ001>006-013>018-027>032-041>047-240000-
NORTHWEST KANSAS

CITY           SKY/WX    TMP DP  RH WIND       PRES   REMARKS
GOODLAND       PTSUNNY   84  58  40 S23G37    29.91F
HAYS           LGT RAIN  71  65  81 S7        29.97R
HILL CITY      CLOUDY    85  60  42 S14G29    29.93S
RUSSELL        CLOUDY    84  63  49 S23G32    29.95R
$$

KSZ061>065-074>080-084>089-240000-
SOUTHWEST KANSAS

CITY           SKY/WX    TMP DP  RH WIND       PRES   REMARKS
DODGE CITY     CLOUDY    89  57  33 S21G33    29.96F
ELKHART        PTSUNNY   77  57  49 S18G24    29.96F
GARDEN CITY    MOSUNNY   87  56  34 SW20G28   29.95F
GREAT BEND     LGT RAIN  68  61  77 S12G24    30.00R
LIBERAL        CLOUDY    87  57  35 SW17G25   29.95F
PRATT          CLOUDY    77  53  41 N13       30.01R
$$

KSZ066>073-081>083-090>101-240000-
SOUTHEAST KANSAS

CITY           SKY/WX    TMP DP  RH WIND       PRES   REMARKS
CHANUTE        CLOUDY    75  68  78 S9        30.04F
COFFEYVILLE    CLOUDY    75  70  84 NE9       30.02F
HUTCHINSON     MOSUNNY   88  61  40 SE17G25   29.97F
MEDICINE LODGE   N/A     87  59  38 SE13G25   29.95S
NEWTON         SUNNY     87  62  43 S16       30.01S
PARSONS        CLOUDY    73  68  84 W8        30.05S
WICHITA INTL   PTSUNNY   87  65  47 SE13      29.98F
WICHITA JABRA  MOSUNNY   83  69  62 SE18G26   30.00S
WICHITA MCCONL MOSUNNY   84  67  56 S20G28    30.04R
WINFIELD       SUNNY     84  68  58 E10       30.01F
$$

KSZ007>012-019>026-033>040-048>060-102>105-240000-
NORTHEAST KANSAS

CITY           SKY/WX    TMP DP  RH WIND       PRES   REMARKS
CONCORDIA      MOSUNNY   88  58  36 S15G23    29.97R
LAWRENCE       MOSUNNY   87  63  44 S14       30.00F
MANHATTAN      SUNNY     89  62  40 S18G24    29.98F
MARYSVILLE     SUNNY     86  63  45 S14G24    29.99S
OLATHE IND     SUNNY     86  65  49 SE13      30.03F
OLATHE EXE     SUNNY     84  65  52 SE12      30.03F
SALINA         SUNNY     90  59  35 S16G26    29.96S
TOPEKA BILLARD PTSUNNY   87  67  51 SE15G22   29.99F
TOPEKA FORBES  PTSUNNY   86  67  52 SE9       30.00F
$$




USA.gov is the U.S. government's official web portal to all federal, state and local government web resources and services.